This is the latest recevied weather packets stored in our database for station/object KE8CZD. If no packets are shown the sender has not sent any weather packets the latest 10 day(s).
| Time | Temp. | Humidity | Pressure | Rain* | Wind** | Luminosity | Snow |
|---|---|---|---|---|---|---|---|
| 1777923404 | 25° C | 20% | 995.9 hPa | 0 mm | - | - | - |
| 1777923044 | 25° C | 20% | 995.9 hPa | 0 mm | - | - | - |
| 1777922684 | 24.44° C | 20% | 996 hPa | 0 mm | - | - | - |
| 1777922324 | 25° C | 19% | 996 hPa | 0 mm | - | - | - |
| 1777921964 | 25.56° C | 20% | 996.3 hPa | 0 mm | - | - | - |
| 1777921604 | 25.56° C | 19% | 996 hPa | 0 mm | - | - | - |
| 1777921244 | 25.56° C | 20% | 996.2 hPa | 0 mm | - | - | - |
| 1777920885 | 25° C | 19% | 996.3 hPa | 0 mm | - | - | - |
| 1777920525 | 25° C | 19% | 996.3 hPa | 0 mm | - | - | - |
| 1777920165 | 25° C | 20% | 996.4 hPa | 0 mm | - | - | - |
| 1777919804 | 24.44° C | 20% | 996.6 hPa | 0 mm | - | - | - |
| 1777919445 | 23.89° C | 21% | 996.6 hPa | 0 mm | - | - | - |
| 1777919084 | 23.89° C | 21% | 996.7 hPa | 0 mm | - | - | - |
| 1777918724 | 23.89° C | 21% | 996.7 hPa | 0 mm | - | - | - |
| 1777918364 | 23.89° C | 21% | 996.8 hPa | 0 mm | - | - | - |
| 1777918004 | 24.44° C | 22% | 996.9 hPa | 0 mm | - | - | - |
| 1777917644 | 23.89° C | 22% | 996.7 hPa | 0 mm | - | - | - |
| 1777917284 | 23.89° C | 25% | 997 hPa | 0 mm | - | - | - |
| 1777916924 | 23.89° C | 27% | 997.1 hPa | 0 mm | - | - | - |
| 1777916564 | 23.33° C | 25% | 997.1 hPa | 0 mm | - | - | - |
| 1777916205 | 23.33° C | 24% | 0 hPa | 0 mm | - | - | - |
| 1777915844 | 23.33° C | 25% | 997.6 hPa | 0 mm | - | - | - |
| 1777915484 | 23.33° C | 27% | 997.8 hPa | 0 mm | - | - | - |
| 1777915124 | 23.33° C | 28% | 997.8 hPa | 0 mm | - | - | - |
| 1777914765 | 23.33° C | 29% | 997.8 hPa | 0 mm | - | - | - |
* Rain latest hour (hover to see other rain measurements)
** Current wind speed in m/s (hover to see current wind gust speed)